Time,TemperatureF,DewpointF,PressureIn,WindDirection,WindDirectionDegrees,WindSpeedMPH,WindSpeedGustMPH,Humidity,HourlyPrecipIn,Conditions,Clouds,dailyrainin,SoftwareType,DateUTC
2013-06-06 00:03:00,62.6,49.8,29.89,NW,314,0.0,3.1,63,0.00,,SCT060,0.00,VWS V14.01,2013-06-06 05:03:00,
2013-06-06 00:08:00,62.6,49.8,29.89,NW,316,4.9,6.3,63,0.00,,SCT060,0.00,VWS V14.01,2013-06-06 05:08:00,
2013-06-06 00:13:00,62.4,51.1,29.89,NNW,341,4.0,5.8,66,0.00,,SCT060,0.00,VWS V14.01,2013-06-06 05:13:00,
2013-06-06 00:18:00,62.2,51.0,29.89,North,350,2.7,5.8,66,0.00,,SCT060,0.00,VWS V14.01,2013-06-06 05:18:00,
2013-06-06 00:23:00,62.2,53.7,29.89,NNW,337,4.0,5.8,74,0.00,,BKN060,0.00,VWS V14.01,2013-06-06 05:23:00,
2013-06-06 00:28:00,62.1,53.5,29.89,NW,313,5.8,10.1,74,0.00,,BKN060,0.00,VWS V14.01,2013-06-06 05:28:00,
2013-06-06 00:33:00,61.9,53.3,29.89,North,11,0.0,5.8,74,0.00,,BKN060,0.00,VWS V14.01,2013-06-06 05:33:00,
2013-06-06 00:38:00,61.9,53.3,29.89,ENE,57,4.5,5.8,74,0.00,,BKN060,0.00,VWS V14.01,2013-06-06 05:38:00,
2013-06-06 00:43:00,61.7,53.2,29.89,North,357,0.0,3.1,74,0.00,,SCT060,0.00,VWS V14.01,2013-06-06 05:43:00,
2013-06-06 00:48:00,61.7,53.2,29.89,NNW,330,5.4,5.8,74,0.00,,SCT060,0.00,VWS V14.01,2013-06-06 05:48:00,
2013-06-06 00:53:00,61.5,53.0,29.89,NNW,333,5.4,5.4,74,0.00,,SCT060,0.00,VWS V14.01,2013-06-06 05:53:00,
2013-06-06 00:59:00,61.3,52.8,29.89,NNE,25,2.2,5.8,74,0.00,,CLR,0.00,VWS V14.01,2013-06-06 05:59:00,
2013-06-06 01:04:00,61.3,52.8,29.86,North,8,5.4,6.3,74,0.00,,CLR,0.00,VWS V14.01,2013-06-06 06:04:00,
2013-06-06 01:09:00,61.3,52.8,29.86,NNE,23,0.0,4.9,74,0.00,,CLR,0.00,VWS V14.01,2013-06-06 06:09:00,
2013-06-06 01:14:00,61.2,52.6,29.86,NW,316,3.1,8.3,74,0.00,,CLR,0.00,VWS V14.01,2013-06-06 06:14:00,
2013-06-06 01:19:00,61.2,52.6,29.86,NNE,18,5.8,5.8,74,0.00,,CLR,0.00,VWS V14.01,2013-06-06 06:19:00,
2013-06-06 01:24:00,61.0,52.5,29.86,NW,324,2.7,6.3,74,0.00,,CLR,0.00,VWS V14.01,2013-06-06 06:24:00,
2013-06-06 01:29:00,60.8,55.9,29.86,East,89,3.6,8.3,84,0.00,,CLR,0.00,VWS V14.01,2013-06-06 06:29:00,
2013-06-06 01:34:00,60.6,55.8,29.86,ENE,62,4.0,6.3,84,0.00,,CLR,0.00,VWS V14.01,2013-06-06 06:34:00,
2013-06-06 01:39:00,60.6,53.4,29.86,North,8,3.6,8.7,77,0.00,,CLR,0.00,VWS V14.01,2013-06-06 06:39:00,
2013-06-06 01:44:00,60.6,53.4,29.86,NNE,33,3.1,8.3,77,0.00,,CLR,0.00,VWS V14.01,2013-06-06 06:44:00,
2013-06-06 01:49:00,60.4,53.2,29.86,North,2,0.0,4.9,77,0.00,,CLR,0.00,VWS V14.01,2013-06-06 06:49:00,
2013-06-06 01:54:00,60.4,53.2,29.86,North,0,2.7,6.3,77,0.00,,CLR,0.00,VWS V14.01,2013-06-06 06:54:00,
2013-06-06 01:59:00,60.4,53.2,29.86,ENE,68,4.5,8.1,77,0.00,,CLR,0.00,VWS V14.01,2013-06-06 06:59:00,
2013-06-06 02:04:00,60.4,53.2,29.86,ESE,115,0.0,8.3,77,0.00,,CLR,0.00,VWS V14.01,2013-06-06 07:04:00,
2013-06-06 02:09:00,60.4,53.2,29.86,NNE,15,0.0,5.8,77,0.00,,CLR,0.00,VWS V14.01,2013-06-06 07:09:00,
2013-06-06 02:15:00,60.3,53.0,29.86,NNE,32,2.2,5.4,77,0.00,,CLR,0.00,VWS V14.01,2013-06-06 07:15:00,
2013-06-06 02:20:00,60.1,52.9,29.83,NNW,332,3.1,6.3,77,0.00,,CLR,0.00,VWS V14.01,2013-06-06 07:20:00,
2013-06-06 02:25:00,59.9,48.7,29.83,NNW,329,3.1,4.0,66,0.00,,SCT060,0.00,VWS V14.01,2013-06-06 07:25:00,
2013-06-06 02:30:00,59.7,48.6,29.83,NNE,28,0.0,6.3,66,0.00,,SCT060,0.00,VWS V14.01,2013-06-06 07:30:00,
2013-06-06 02:35:00,59.7,48.6,29.83,NW,310,2.2,5.4,66,0.00,,SCT060,0.00,VWS V14.01,2013-06-06 07:35:00,
2013-06-06 02:40:00,59.5,48.4,29.83,NW,320,2.7,2.7,66,0.00,,SCT060,0.00,VWS V14.01,2013-06-06 07:40:00,
2013-06-06 02:45:00,59.5,48.4,29.83,NE,38,3.1,3.6,66,0.00,,SCT060,0.00,VWS V14.01,2013-06-06 07:45:00,
2013-06-06 02:50:00,59.5,48.4,29.83,NNW,348,4.0,4.0,66,0.00,,SCT060,0.00,VWS V14.01,2013-06-06 07:50:00,
2013-06-06 02:55:00,59.5,48.4,29.83,North,353,0.0,3.1,66,0.00,,SCT060,0.00,VWS V14.01,2013-06-06 07:55:00,
2013-06-06 03:00:00,59.5,48.4,29.83,NW,320,2.7,4.0,66,0.00,,SCT060,0.00,VWS V14.01,2013-06-06 08:00:00,
2013-06-06 03:05:00,59.5,48.4,29.83,East,95,0.0,0.0,66,0.00,,SCT060,0.00,VWS V14.01,2013-06-06 08:05:00,
2013-06-06 03:10:00,59.5,48.4,29.83,NNW,334,4.0,4.0,66,0.00,,SCT060,0.00,VWS V14.01,2013-06-06 08:10:00,
2013-06-06 03:15:00,59.5,48.4,29.83,NNW,341,0.0,3.1,66,0.00,,SCT060,0.00,VWS V14.01,2013-06-06 08:15:00,
2013-06-06 03:20:00,59.7,48.6,29.83,NW,326,0.0,4.9,66,0.00,,SCT060,0.00,VWS V14.01,2013-06-06 08:20:00,
2013-06-06 03:26:00,59.7,48.6,29.83,North,7,0.0,0.0,66,0.00,,SCT060,0.00,VWS V14.01,2013-06-06 08:26:00,
2013-06-06 03:31:00,59.7,48.6,29.83,NNW,335,3.1,6.7,66,0.00,,SCT060,0.00,VWS V14.01,2013-06-06 08:31:00,
2013-06-06 03:36:00,59.7,48.6,29.83,East,85,3.1,3.1,66,0.00,,SCT060,0.00,VWS V14.01,2013-06-06 08:36:00,
2013-06-06 03:41:00,59.7,48.6,29.83,ENE,57,0.0,5.4,66,0.00,,SCT060,0.00,VWS V14.01,2013-06-06 08:41:00,
2013-06-06 03:46:00,59.7,48.6,29.83,NNE,15,0.0,4.9,66,0.00,,SCT060,0.00,VWS V14.01,2013-06-06 08:46:00,
2013-06-06 03:51:00,59.7,48.6,29.83,NNW,335,0.0,4.0,66,0.00,,SCT060,0.00,VWS V14.01,2013-06-06 08:51:00,
2013-06-06 03:56:00,59.7,48.6,29.83,NNW,328,3.6,4.0,66,0.00,,SCT060,0.00,VWS V14.01,2013-06-06 08:56:00,
2013-06-06 04:01:00,59.7,48.6,29.83,NNE,28,0.0,4.0,66,0.00,,CLR,0.00,VWS V14.01,2013-06-06 09:01:00,
2013-06-06 04:06:00,59.5,48.4,29.83,NNW,328,4.0,5.4,66,0.00,,CLR,0.00,VWS V14.01,2013-06-06 09:06:00,
2013-06-06 04:11:00,59.7,48.6,29.83,North,353,3.1,5.4,66,0.00,,CLR,0.00,VWS V14.01,2013-06-06 09:11:00,
2013-06-06 04:17:00,59.5,48.4,29.83,NE,53,0.0,5.4,66,0.00,,CLR,0.00,VWS V14.01,2013-06-06 09:17:00,
2013-06-06 04:22:00,59.7,48.6,29.83,North,353,0.0,3.6,66,0.00,,CLR,0.00,VWS V14.01,2013-06-06 09:22:00,
2013-06-06 04:27:00,59.7,48.6,29.83,ENE,70,4.9,4.9,66,0.00,,CLR,0.00,VWS V14.01,2013-06-06 09:27:00,
2013-06-06 04:32:00,59.7,48.6,29.83,NE,46,0.0,2.7,66,0.00,,CLR,0.00,VWS V14.01,2013-06-06 09:32:00,
2013-06-06 04:37:00,59.5,48.4,29.83,NNW,337,0.0,4.0,66,0.00,,CLR,0.00,VWS V14.01,2013-06-06 09:37:00,
2013-06-06 04:42:00,59.5,48.4,29.83,NNW,333,2.2,5.8,66,0.00,,CLR,0.00,VWS V14.01,2013-06-06 09:42:00,
2013-06-06 04:47:00,59.5,48.4,29.83,NNE,28,0.0,4.9,66,0.00,,CLR,0.00,VWS V14.01,2013-06-06 09:47:00,
2013-06-06 04:52:00,59.5,48.4,29.83,North,0,0.0,0.0,66,0.00,,CLR,0.00,VWS V14.01,2013-06-06 09:52:00,
2013-06-06 04:57:00,59.5,48.4,29.83,NE,45,0.0,5.4,66,0.00,,CLR,0.00,VWS V14.01,2013-06-06 09:57:00,
2013-06-06 05:02:00,59.4,48.2,29.83,NW,310,0.0,4.0,66,0.00,,SCT060,0.00,VWS V14.01,2013-06-06 10:02:00,
2013-06-06 05:07:00,59.4,48.2,29.83,NNW,344,2.7,5.4,66,0.00,,SCT060,0.00,VWS V14.01,2013-06-06 10:07:00,
2013-06-06 05:12:00,59.4,48.2,29.83,ENE,74,4.0,4.0,66,0.00,,SCT060,0.00,VWS V14.01,2013-06-06 10:12:00,
2013-06-06 05:17:00,59.4,48.2,29.83,ENE,78,0.0,2.7,66,0.00,,SCT060,0.00,VWS V14.01,2013-06-06 10:17:00,
2013-06-06 05:23:00,59.4,48.2,29.83,North,353,0.0,3.1,66,0.00,,SCT120,0.00,VWS V14.01,2013-06-06 10:23:00,
2013-06-06 05:28:00,59.4,48.2,29.83,NNW,335,0.0,4.9,66,0.00,,SCT120,0.00,VWS V14.01,2013-06-06 10:28:00,
2013-06-06 05:33:00,59.4,48.2,29.83,North,353,0.0,0.0,66,0.00,,SCT120,0.00,VWS V14.01,2013-06-06 10:33:00,
2013-06-06 05:38:00,59.4,48.2,29.83,North,7,0.0,2.7,66,0.00,,BKN110,0.00,VWS V14.01,2013-06-06 10:38:00,
2013-06-06 05:43:00,59.2,48.0,29.83,NNW,330,2.7,5.4,66,0.00,,BKN110,0.00,VWS V14.01,2013-06-06 10:43:00,
2013-06-06 05:48:00,59.2,48.0,29.83,NE,40,0.0,0.0,66,0.00,,BKN110,0.00,VWS V14.01,2013-06-06 10:48:00,
2013-06-06 05:53:00,59.2,48.0,29.83,NNE,24,2.7,3.6,66,0.00,,BKN110,0.00,VWS V14.01,2013-06-06 10:53:00,
2013-06-06 05:58:00,59.2,52.0,29.83,North,353,0.0,5.8,77,0.00,,SCT110,0.00,VWS V14.01,2013-06-06 10:58:00,
2013-06-06 06:03:00,59.2,52.0,29.83,North,353,4.0,5.8,77,0.00,,SCT110,0.00,VWS V14.01,2013-06-06 11:03:00,
2013-06-06 06:08:00,59.2,52.0,29.83,NE,38,0.0,0.0,77,0.00,,SCT110,0.00,VWS V14.01,2013-06-06 11:08:00,
2013-06-06 06:13:00,59.2,52.0,29.83,North,5,0.0,4.9,77,0.00,,SCT110,0.00,VWS V14.01,2013-06-06 11:13:00,
2013-06-06 06:18:00,59.4,52.2,29.83,NW,326,0.0,0.0,77,0.00,,SCT110,0.00,VWS V14.01,2013-06-06 11:18:00,
2013-06-06 06:24:00,59.4,52.2,29.83,WNW,302,0.0,0.0,77,0.00,,SCT110,0.00,VWS V14.01,2013-06-06 11:24:00,
2013-06-06 06:29:00,59.5,52.3,29.83,NNW,337,0.0,3.6,77,0.00,,SCT110,0.00,VWS V14.01,2013-06-06 11:29:00,
2013-06-06 06:34:00,59.7,52.5,29.83,NNW,335,3.1,4.0,77,0.00,,SCT110,0.00,VWS V14.01,2013-06-06 11:34:00,
2013-06-06 06:39:00,59.7,52.5,29.83,NNW,340,0.0,5.4,77,0.00,,SCT110,0.00,VWS V14.01,2013-06-06 11:39:00,
2013-06-06 06:44:00,59.7,52.5,29.83,NNW,330,0.0,0.0,77,0.00,,CLR,0.00,VWS V14.01,2013-06-06 11:44:00,
2013-06-06 06:49:00,59.7,52.5,29.83,WNW,302,0.0,5.4,77,0.00,,CLR,0.00,VWS V14.01,2013-06-06 11:49:00,
2013-06-06 06:54:00,59.7,52.5,29.83,NW,319,2.2,3.6,77,0.00,,CLR,0.00,VWS V14.01,2013-06-06 11:54:00,
2013-06-06 06:59:00,59.7,52.5,29.83,NNW,344,0.0,4.0,77,0.00,,CLR,0.00,VWS V14.01,2013-06-06 11:59:00,
2013-06-06 07:04:00,59.7,52.5,29.86,NW,307,0.0,0.0,77,0.00,,SCT120,0.00,VWS V14.01,2013-06-06 12:04:00,
2013-06-06 07:09:00,59.7,52.5,29.86,NNW,339,3.6,6.3,77,0.00,,SCT120,0.00,VWS V14.01,2013-06-06 12:09:00,
2013-06-06 07:14:00,59.7,52.5,29.86,NNW,343,0.0,4.9,77,0.00,,SCT120,0.00,VWS V14.01,2013-06-06 12:14:00,
2013-06-06 07:19:00,59.7,52.5,29.86,North,1,4.0,5.4,77,0.00,,SCT120,0.00,VWS V14.01,2013-06-06 12:19:00,
2013-06-06 07:24:00,59.5,52.3,29.86,NNW,345,0.0,5.8,77,0.00,,-RA,0.00,VWS V14.01,2013-06-06 12:24:00,
2013-06-06 07:29:00,59.5,52.3,29.86,North,357,0.0,5.8,77,0.00,,-RA,0.00,VWS V14.01,2013-06-06 12:29:00,
2013-06-06 07:34:00,59.5,52.3,29.86,NNW,346,0.0,5.8,77,0.00,,-RA,0.00,VWS V14.01,2013-06-06 12:34:00,
2013-06-06 07:40:00,59.5,52.3,29.86,WNW,302,4.0,4.0,77,0.00,,SCT120,0.00,VWS V14.01,2013-06-06 12:40:00,
2013-06-06 07:45:00,59.5,52.3,29.86,NNW,342,5.4,5.8,77,0.00,,SCT120,0.00,VWS V14.01,2013-06-06 12:45:00,
2013-06-06 07:50:00,59.4,52.2,29.86,North,0,3.6,8.1,77,0.00,,SCT120,0.00,VWS V14.01,2013-06-06 12:50:00,
2013-06-06 07:55:00,59.4,52.2,29.86,NW,324,2.7,5.8,77,0.00,,SCT120,0.00,VWS V14.01,2013-06-06 12:55:00,
2013-06-06 08:00:00,59.2,52.0,29.86,NNW,330,3.1,6.3,77,0.00,,SCT120,0.00,VWS V14.01,2013-06-06 13:00:00,
2013-06-06 08:05:00,59.0,51.8,29.86,NE,49,0.0,5.4,77,0.00,,BKN120,0.00,VWS V14.01,2013-06-06 13:05:00,
2013-06-06 08:10:00,58.8,51.6,29.86,ENE,57,0.0,0.0,77,0.00,,BKN120,0.00,VWS V14.01,2013-06-06 13:10:00,
2013-06-06 08:15:00,58.6,51.5,29.86,North,357,0.0,0.0,77,0.00,,BKN120,0.00,VWS V14.01,2013-06-06 13:15:00,
2013-06-06 08:20:00,58.6,51.5,29.86,NNW,329,3.6,3.6,77,0.00,,BKN120,0.00,VWS V14.01,2013-06-06 13:20:00,
2013-06-06 08:25:00,58.6,53.8,29.86,North,357,6.3,8.1,84,0.00,,BKN110,0.00,VWS V14.01,2013-06-06 13:25:00,
2013-06-06 08:30:00,58.8,54.0,29.86,North,9,0.0,0.0,84,0.00,,BKN110,0.00,VWS V14.01,2013-06-06 13:30:00,
2013-06-06 08:35:00,58.8,54.0,29.86,North,11,3.1,4.9,84,0.00,,BKN110,0.00,VWS V14.01,2013-06-06 13:35:00,
2013-06-06 08:40:00,58.8,55.1,29.86,North,11,3.6,6.3,88,0.00,,SCT110,0.00,VWS V14.01,2013-06-06 13:40:00,
2013-06-06 08:45:00,58.8,55.1,29.86,NNE,18,2.7,3.6,88,0.00,,SCT110,0.00,VWS V14.01,2013-06-06 13:45:00,
2013-06-06 08:51:00,58.8,55.1,29.86,ENE,74,3.1,5.4,88,0.00,,SCT110,0.00,VWS V14.01,2013-06-06 13:51:00,
2013-06-06 08:56:00,58.8,56.2,29.86,North,0,0.0,3.1,91,0.00,,SCT110,0.00,VWS V14.01,2013-06-06 13:56:00,
2013-06-06 09:01:00,58.8,56.2,29.86,NW,316,4.0,4.0,91,0.00,,SCT120,0.00,VWS V14.01,2013-06-06 14:01:00,
2013-06-06 09:06:00,58.8,56.2,29.86,NE,39,0.0,3.6,91,0.00,,SCT120,0.00,VWS V14.01,2013-06-06 14:06:00,
2013-06-06 09:12:00,58.8,56.2,29.86,NNW,339,0.0,0.0,91,0.00,,SCT120,0.00,VWS V14.01,2013-06-06 14:12:00,
2013-06-06 09:17:00,58.8,56.2,29.86,NNE,28,0.0,5.4,91,0.00,,SCT120,0.00,VWS V14.01,2013-06-06 14:17:00,
2013-06-06 09:22:00,59.0,56.4,29.86,East,85,2.7,4.0,91,0.00,,SCT120,0.00,VWS V14.01,2013-06-06 14:22:00,
2013-06-06 09:27:00,59.0,56.4,29.86,NE,34,3.6,5.4,91,0.00,,SCT120,0.00,VWS V14.01,2013-06-06 14:27:00,
2013-06-06 09:32:00,59.0,56.4,29.86,NE,50,3.1,3.6,91,0.00,,SCT120,0.00,VWS V14.01,2013-06-06 14:32:00,
2013-06-06 09:37:00,58.8,57.2,29.86,NE,35,0.0,4.0,94,0.00,,SCT120,0.00,VWS V14.01,2013-06-06 14:37:00,
2013-06-06 09:42:00,59.0,57.4,29.86,ENE,72,0.0,3.1,94,0.04,,BKN120,0.04,VWS V14.01,2013-06-06 14:42:00,
2013-06-06 09:47:00,59.2,57.6,29.86,NE,39,0.0,0.0,94,0.04,,BKN120,0.04,VWS V14.01,2013-06-06 14:47:00,
2013-06-06 09:52:00,59.7,58.1,29.86,NNE,32,0.0,5.4,94,0.04,,BKN120,0.04,VWS V14.01,2013-06-06 14:52:00,
2013-06-06 09:57:00,60.1,59.5,29.86,North,9,2.2,3.6,98,0.04,,BKN120,0.04,VWS V14.01,2013-06-06 14:57:00,
2013-06-06 10:02:00,60.8,60.2,29.86,ESE,117,0.0,4.0,98,0.04,,OVC110,0.04,VWS V14.01,2013-06-06 15:02:00,
2013-06-06 10:07:00,62.2,62.2,29.86,North,11,6.3,8.3,100,0.04,,OVC110,0.04,VWS V14.01,2013-06-06 15:07:00,
2013-06-06 10:13:00,62.2,62.2,29.86,North,353,2.7,4.9,100,0.04,,OVC110,0.04,VWS V14.01,2013-06-06 15:13:00,
2013-06-06 10:18:00,61.9,61.3,29.86,NNW,346,4.0,8.3,98,0.04,,OVC110,0.04,VWS V14.01,2013-06-06 15:18:00,
2013-06-06 10:23:00,61.7,60.1,29.86,ESE,117,0.0,7.2,94,0.04,,OVC110,0.04,VWS V14.01,2013-06-06 15:23:00,
2013-06-06 10:28:00,62.2,60.7,29.86,NNE,32,5.4,8.1,94,0.04,,OVC110,0.04,VWS V14.01,2013-06-06 15:28:00,
2013-06-06 10:33:00,63.1,61.5,29.86,North,0,5.8,6.3,94,0.04,,OVC110,0.04,VWS V14.01,2013-06-06 15:33:00,
2013-06-06 10:38:00,63.5,59.7,29.86,NE,40,0.0,5.4,88,0.04,,OVC110,0.04,VWS V14.01,2013-06-06 15:38:00,
2013-06-06 10:43:00,63.5,58.6,29.86,NE,45,0.0,6.3,84,0.00,,OVC110,0.04,VWS V14.01,2013-06-06 15:43:00,
2013-06-06 10:48:00,63.9,58.9,29.86,NE,47,5.4,5.4,84,0.00,,OVC110,0.04,VWS V14.01,2013-06-06 15:48:00,
2013-06-06 10:53:00,64.4,58.3,29.86,East,92,2.2,5.8,80,0.00,,OVC110,0.04,VWS V14.01,2013-06-06 15:53:00,
2013-06-06 10:58:00,64.9,58.8,29.86,SE,130,4.9,5.4,80,0.00,,OVC110,0.04,VWS V14.01,2013-06-06 15:58:00,
2013-06-06 11:03:00,64.4,54.4,29.86,NE,45,3.6,6.3,70,0.00,,BKN110,0.04,VWS V14.01,2013-06-06 16:03:00,
2013-06-06 11:08:00,64.6,54.6,29.86,NE,35,0.0,3.1,70,0.00,,BKN110,0.04,VWS V14.01,2013-06-06 16:08:00,
2013-06-06 11:13:00,64.6,54.6,29.86,ESE,119,2.2,3.1,70,0.00,,BKN110,0.04,VWS V14.01,2013-06-06 16:13:00,
2013-06-06 11:18:00,64.9,54.9,29.86,NNW,340,0.0,4.9,70,0.00,,BKN110,0.04,VWS V14.01,2013-06-06 16:18:00,
2013-06-06 11:23:00,65.5,55.5,29.86,NW,324,3.6,5.8,70,0.00,,BKN110,0.04,VWS V14.01,2013-06-06 16:23:00,
2013-06-06 11:28:00,66.0,56.0,29.86,North,0,0.0,6.3,70,0.00,,BKN110,0.04,VWS V14.01,2013-06-06 16:28:00,
2013-06-06 11:33:00,66.2,56.1,29.86,NE,34,2.7,8.3,70,0.00,,BKN110,0.04,VWS V14.01,2013-06-06 16:33:00,
2013-06-06 11:38:00,66.9,56.8,29.86,North,0,5.4,5.8,70,0.00,,BKN110,0.04,VWS V14.01,2013-06-06 16:38:00,
2013-06-06 11:43:00,67.1,57.0,29.86,NE,35,0.0,5.8,70,0.00,,BKN120,0.04,VWS V14.01,2013-06-06 16:43:00,
2013-06-06 11:48:00,67.3,57.2,29.86,WNW,286,0.0,5.8,70,0.00,,BKN120,0.04,VWS V14.01,2013-06-06 16:48:00,
2013-06-06 11:54:00,67.8,57.7,29.86,NNW,329,0.0,3.6,70,0.00,,BKN120,0.04,VWS V14.01,2013-06-06 16:54:00,
2013-06-06 11:59:00,68.4,58.2,29.86,NE,41,0.0,5.8,70,0.00,,BKN120,0.04,VWS V14.01,2013-06-06 16:59:00,
2013-06-06 12:04:00,68.9,58.7,29.86,North,5,0.0,6.3,70,0.00,,BKN100,0.04,VWS V14.01,2013-06-06 17:04:00,
2013-06-06 12:09:00,69.4,59.2,29.86,NNW,340,5.8,6.3,70,0.00,,BKN100,0.04,VWS V14.01,2013-06-06 17:09:00,
2013-06-06 12:14:00,70.3,58.7,29.86,NW,311,3.1,6.3,66,0.00,,BKN100,0.04,VWS V14.01,2013-06-06 17:14:00,
2013-06-06 12:19:00,70.7,59.0,29.86,NNW,328,3.1,5.8,66,0.00,,BKN100,0.04,VWS V14.01,2013-06-06 17:19:00,
2013-06-06 12:24:00,71.2,59.5,29.86,ENE,73,0.0,4.9,66,0.00,,BKN100,0.04,VWS V14.01,2013-06-06 17:24:00,
2013-06-06 12:29:00,71.4,59.7,29.86,NNW,333,4.9,5.8,66,0.00,,BKN100,0.04,VWS V14.01,2013-06-06 17:29:00,
2013-06-06 12:34:00,72.0,60.2,29.86,NNW,344,5.8,7.2,66,0.00,,BKN100,0.04,VWS V14.01,2013-06-06 17:34:00,
2013-06-06 12:39:00,72.0,60.2,29.86,North,0,5.8,6.3,66,0.00,,BKN100,0.04,VWS V14.01,2013-06-06 17:39:00,
2013-06-06 12:44:00,71.6,59.9,29.86,ENE,62,5.8,6.3,66,0.00,,SCT080,0.04,VWS V14.01,2013-06-06 17:44:00,
2013-06-06 12:49:00,72.0,60.2,29.86,NE,45,0.0,3.6,66,0.00,,SCT080,0.04,VWS V14.01,2013-06-06 17:49:00,
2013-06-06 12:54:00,72.7,60.9,29.86,WNW,299,3.1,3.6,66,0.00,,SCT080,0.04,VWS V14.01,2013-06-06 17:54:00,
2013-06-06 12:59:00,73.2,61.4,29.86,NE,54,2.7,6.3,66,0.00,,SCT080,0.04,VWS V14.01,2013-06-06 17:59:00,
2013-06-06 13:04:00,73.4,60.0,29.86,NNE,14,0.0,4.9,63,0.00,,SCT120,0.04,VWS V14.01,2013-06-06 18:04:00,
2013-06-06 13:09:00,73.8,60.4,29.86,NE,34,4.0,4.5,63,0.00,,SCT120,0.04,VWS V14.01,2013-06-06 18:09:00,
2013-06-06 13:15:00,73.9,60.6,29.86,ENE,62,0.0,5.8,63,0.00,,SCT120,0.04,VWS V14.01,2013-06-06 18:15:00,
2013-06-06 13:20:00,73.4,60.0,29.86,NE,43,0.0,0.0,63,0.00,,SCT120,0.04,VWS V14.01,2013-06-06 18:20:00,
2013-06-06 13:25:00,73.4,60.0,29.86,North,0,0.0,4.9,63,0.00,,BKN120,0.04,VWS V14.01,2013-06-06 18:25:00,
2013-06-06 13:30:00,73.8,60.4,29.86,ENE,66,0.0,5.4,63,0.00,,BKN120,0.04,VWS V14.01,2013-06-06 18:30:00,
2013-06-06 13:35:00,73.9,60.6,29.86,NNW,341,2.7,4.9,63,0.00,,BKN120,0.04,VWS V14.01,2013-06-06 18:35:00,
2013-06-06 13:40:00,75.0,61.6,29.86,WNW,289,5.8,5.8,63,0.00,,BKN120,0.04,VWS V14.01,2013-06-06 18:40:00,
2013-06-06 13:45:00,75.2,61.8,29.86,North,349,2.2,4.0,63,0.00,,BKN120,0.04,VWS V14.01,2013-06-06 18:45:00,
2013-06-06 13:50:00,74.7,61.2,29.86,SSW,197,0.0,0.0,63,0.00,,BKN120,0.04,VWS V14.01,2013-06-06 18:50:00,
2013-06-06 13:55:00,73.9,60.6,29.86,ENE,65,0.0,0.0,63,0.00,,BKN120,0.04,VWS V14.01,2013-06-06 18:55:00,
2013-06-06 14:00:00,72.7,60.9,29.86,WNW,288,3.1,4.0,66,0.00,,BKN120,0.04,VWS V14.01,2013-06-06 19:00:00,
2013-06-06 14:05:00,71.8,60.0,29.86,NW,308,7.6,7.6,66,0.00,,BKN120,0.04,VWS V14.01,2013-06-06 19:05:00,
2013-06-06 14:10:00,70.7,59.0,29.86,NNW,338,6.3,9.6,66,0.00,,BKN120,0.04,VWS V14.01,2013-06-06 19:10:00,
2013-06-06 14:16:00,69.8,58.2,29.86,WNW,299,2.7,8.3,66,0.00,,BKN120,0.04,VWS V14.01,2013-06-06 19:16:00,
2013-06-06 14:21:00,69.4,54.7,29.86,SW,230,3.1,4.0,60,0.00,,OVC075,0.04,VWS V14.01,2013-06-06 19:21:00,
2013-06-06 14:26:00,69.1,54.4,29.86,SE,139,3.6,3.6,60,0.00,,OVC075,0.04,VWS V14.01,2013-06-06 19:26:00,
2013-06-06 14:31:00,68.9,54.2,29.86,NNW,329,4.0,8.1,60,0.00,,OVC075,0.04,VWS V14.01,2013-06-06 19:31:00,
2013-06-06 14:34:00,68.7,54.1,29.86,NNW,343,0.0,8.1,60,0.00,,OVC075,0.04,VWS V14.01,2013-06-06 19:34:00,
2013-06-06 14:39:00,68.7,58.5,29.86,NNW,342,5.4,8.3,70,0.00,,OVC090,0.04,VWS V14.01,2013-06-06 19:39:00,
2013-06-06 14:44:00,68.7,58.5,29.86,NW,321,4.9,8.7,70,0.00,,OVC090,0.04,VWS V14.01,2013-06-06 19:44:00,
2013-06-06 14:49:00,68.7,58.5,29.86,NNW,338,3.1,10.5,70,0.00,,OVC090,0.04,VWS V14.01,2013-06-06 19:49:00,
2013-06-06 14:54:00,68.7,58.5,29.86,NNE,15,0.0,7.6,70,0.00,,OVC090,0.04,VWS V14.01,2013-06-06 19:54:00,
2013-06-06 14:59:00,69.3,59.1,29.86,NNW,328,0.0,8.7,70,0.00,,OVC090,0.04,VWS V14.01,2013-06-06 19:59:00,
2013-06-06 15:04:00,69.3,59.1,29.86,NNW,348,5.8,5.8,70,0.00,,OVC080,0.04,VWS V14.01,2013-06-06 20:04:00,
2013-06-06 15:09:00,69.6,59.4,29.86,NNW,341,3.1,8.1,70,0.00,,OVC080,0.04,VWS V14.01,2013-06-06 20:09:00,
2013-06-06 15:14:00,69.8,58.2,29.86,NNW,331,5.4,6.3,66,0.00,,OVC080,0.04,VWS V14.01,2013-06-06 20:14:00,
2013-06-06 15:19:00,69.6,59.4,29.86,NNW,327,4.9,7.6,70,0.00,,OVC080,0.04,VWS V14.01,2013-06-06 20:19:00,
2013-06-06 15:24:00,69.3,59.1,29.86,NNW,341,5.8,8.3,70,0.00,,OVC090,0.04,VWS V14.01,2013-06-06 20:24:00,
2013-06-06 15:30:00,69.1,58.9,29.86,NNW,334,4.0,7.6,70,0.00,,OVC090,0.04,VWS V14.01,2013-06-06 20:30:00,
2013-06-06 15:35:00,69.1,58.9,29.86,North,353,5.4,10.5,70,0.00,,OVC090,0.04,VWS V14.01,2013-06-06 20:35:00,
2013-06-06 15:40:00,69.1,58.9,29.86,NNW,333,6.3,8.3,70,0.00,,OVC090,0.04,VWS V14.01,2013-06-06 20:40:00,
2013-06-06 15:45:00,69.4,59.2,29.86,NE,49,0.0,6.3,70,0.00,,BKN085,0.04,VWS V14.01,2013-06-06 20:45:00,
2013-06-06 15:50:00,69.6,59.4,29.86,NNW,341,3.6,6.3,70,0.00,,BKN085,0.04,VWS V14.01,2013-06-06 20:50:00,
2013-06-06 15:55:00,69.3,59.1,29.86,North,0,3.6,6.3,70,0.00,,BKN085,0.04,VWS V14.01,2013-06-06 20:55:00,
2013-06-06 16:00:00,68.9,58.7,29.86,NNW,343,3.6,3.6,70,0.00,,BKN085,0.04,VWS V14.01,2013-06-06 21:00:00,
2013-06-06 16:05:00,68.7,58.5,29.86,NNW,330,5.4,5.4,70,0.00,,BKN080,0.04,VWS V14.01,2013-06-06 21:05:00,
2013-06-06 16:10:00,68.9,58.7,29.86,NW,316,0.0,0.0,70,0.00,,BKN080,0.04,VWS V14.01,2013-06-06 21:10:00,
2013-06-06 16:15:00,69.4,59.2,29.86,NNW,338,2.7,2.7,70,0.00,,BKN080,0.04,VWS V14.01,2013-06-06 21:15:00,
2013-06-06 16:20:00,70.2,58.5,29.86,North,0,3.1,4.0,66,0.00,,BKN080,0.04,VWS V14.01,2013-06-06 21:20:00,
2013-06-06 16:25:00,70.3,58.7,29.86,North,353,4.0,4.0,66,0.00,,OVC120,0.04,VWS V14.01,2013-06-06 21:25:00,
2013-06-06 16:30:00,70.9,59.2,29.86,NE,56,0.0,0.0,66,0.00,,OVC120,0.04,VWS V14.01,2013-06-06 21:30:00,
2013-06-06 16:35:00,70.9,59.2,29.86,NE,46,0.0,0.0,66,0.00,,OVC120,0.04,VWS V14.01,2013-06-06 21:35:00,
2013-06-06 16:40:00,71.1,59.3,29.86,North,353,0.0,0.0,66,0.00,,OVC120,0.04,VWS V14.01,2013-06-06 21:40:00,
2013-06-06 16:45:00,71.1,59.3,29.86,NNW,329,0.0,0.0,66,0.00,,OVC049,0.04,VWS V14.01,2013-06-06 21:45:00,
2013-06-06 16:51:00,71.4,59.7,29.86,NNW,341,0.0,2.2,66,0.00,,OVC049,0.04,VWS V14.01,2013-06-06 21:51:00,
2013-06-06 16:56:00,71.8,60.0,29.86,North,10,4.0,5.8,66,0.00,,OVC049,0.04,VWS V14.01,2013-06-06 21:56:00,
2013-06-06 17:01:00,72.1,60.4,29.86,NW,320,3.1,4.9,66,0.00,,OVC049,0.04,VWS V14.01,2013-06-06 22:01:00,
2013-06-06 17:06:00,72.0,60.2,29.86,North,10,0.0,4.9,66,0.00,,BKN095,0.04,VWS V14.01,2013-06-06 22:06:00,
2013-06-06 17:11:00,72.1,60.4,29.86,NNW,339,3.1,3.1,66,0.00,,BKN095,0.04,VWS V14.01,2013-06-06 22:11:00,
2013-06-06 17:16:00,72.1,60.4,29.86,NE,37,0.0,0.0,66,0.00,,BKN095,0.04,VWS V14.01,2013-06-06 22:16:00,
2013-06-06 17:21:00,72.1,60.4,29.86,North,0,0.0,0.0,66,0.00,,BKN095,0.04,VWS V14.01,2013-06-06 22:21:00,
2013-06-06 17:27:00,72.3,60.5,29.86,WNW,288,0.0,0.0,66,0.00,,SCT095,0.04,VWS V14.01,2013-06-06 22:27:00,
2013-06-06 17:32:00,72.7,60.9,29.86,NE,52,0.0,0.0,66,0.00,,SCT095,0.04,VWS V14.01,2013-06-06 22:32:00,
2013-06-06 17:37:00,73.6,60.2,29.86,NW,325,4.9,5.4,63,0.00,,SCT095,0.04,VWS V14.01,2013-06-06 22:37:00,
2013-06-06 17:42:00,74.7,61.2,29.86,NE,45,0.0,3.6,63,0.00,,BKN075,0.04,VWS V14.01,2013-06-06 22:42:00,
2013-06-06 17:47:00,74.3,60.9,29.86,SSE,151,0.0,0.0,63,0.00,,BKN075,0.04,VWS V14.01,2013-06-06 22:47:00,
2013-06-06 17:53:00,73.8,60.4,29.86,North,353,0.0,4.9,63,0.00,,BKN075,0.04,VWS V14.01,2013-06-06 22:53:00,
2013-06-06 17:58:00,73.4,60.0,29.86,North,357,0.0,4.0,63,0.00,,BKN075,0.04,VWS V14.01,2013-06-06 22:58:00,
2013-06-06 18:03:00,73.6,60.2,29.86,NNW,341,0.0,0.0,63,0.00,,OVC080,0.04,VWS V14.01,2013-06-06 23:03:00,
2013-06-06 18:08:00,74.7,61.2,29.86,WNW,301,0.0,0.0,63,0.00,,OVC080,0.04,VWS V14.01,2013-06-06 23:08:00,
2013-06-06 18:13:00,75.2,61.8,29.86,NNW,340,3.6,3.6,63,0.00,,OVC080,0.04,VWS V14.01,2013-06-06 23:13:00,
2013-06-06 18:18:00,74.3,60.9,29.86,NNW,342,0.0,3.6,63,0.00,,OVC075,0.04,VWS V14.01,2013-06-06 23:18:00,
2013-06-06 18:23:00,74.7,61.2,29.86,East,94,0.0,0.0,63,0.00,,OVC075,0.04,VWS V14.01,2013-06-06 23:23:00,
2013-06-06 18:28:00,75.0,61.6,29.86,NNW,331,6.3,6.3,63,0.00,,OVC075,0.04,VWS V14.01,2013-06-06 23:28:00,
2013-06-06 18:33:00,75.2,61.8,29.86,NNE,17,3.6,4.5,63,0.00,,OVC075,0.04,VWS V14.01,2013-06-06 23:33:00,
2013-06-06 18:38:00,74.1,60.7,29.86,ENE,77,0.0,3.6,63,0.00,,OVC075,0.04,VWS V14.01,2013-06-06 23:38:00,
2013-06-06 18:43:00,73.4,60.0,29.86,SE,143,0.0,4.0,63,0.00,,OVC090,0.04,VWS V14.01,2013-06-06 23:43:00,
2013-06-06 18:49:00,73.4,60.0,29.86,NW,325,4.0,4.0,63,0.00,,OVC090,0.04,VWS V14.01,2013-06-06 23:49:00,
2013-06-06 18:54:00,73.4,60.0,29.86,NNW,334,4.0,6.3,63,0.00,,OVC090,0.04,VWS V14.01,2013-06-06 23:54:00,
2013-06-06 18:59:00,73.2,61.4,29.86,NNW,342,2.7,4.9,66,0.00,,OVC090,0.04,VWS V14.01,2013-06-06 23:59:00,
2013-06-06 19:04:00,72.7,60.9,29.86,NNW,345,0.0,4.9,66,0.00,,OVC090,0.04,VWS V14.01,2013-06-07 00:04:00,
2013-06-06 19:09:00,72.1,60.4,29.86,North,357,3.1,4.0,66,0.00,,OVC090,0.04,VWS V14.01,2013-06-07 00:09:00,
2013-06-06 19:14:00,71.6,59.9,29.86,NNW,336,4.0,4.9,66,0.00,,OVC090,0.04,VWS V14.01,2013-06-07 00:14:00,
2013-06-06 19:19:00,71.1,56.3,29.86,North,353,4.0,5.4,60,0.00,,OVC090,0.04,VWS V14.01,2013-06-07 00:19:00,
2013-06-06 19:24:00,70.5,58.8,29.86,North,0,0.0,3.1,66,0.00,,OVC070,0.04,VWS V14.01,2013-06-07 00:24:00,
2013-06-06 19:29:00,70.2,55.4,29.86,NNW,345,0.0,3.6,60,0.00,,OVC070,0.04,VWS V14.01,2013-06-07 00:29:00,
2013-06-06 19:34:00,69.8,55.1,29.86,NW,324,0.0,0.0,60,0.00,,OVC070,0.04,VWS V14.01,2013-06-07 00:34:00,
2013-06-06 19:39:00,69.4,54.7,29.86,NNW,327,0.0,0.0,60,0.00,,OVC070,0.04,VWS V14.01,2013-06-07 00:39:00,
2013-06-06 19:44:00,69.1,54.4,29.86,North,0,0.0,0.0,60,0.00,,OVC085,0.04,VWS V14.01,2013-06-07 00:44:00,
2013-06-06 19:49:00,68.9,54.2,29.86,North,5,4.5,5.8,60,0.00,,OVC085,0.04,VWS V14.01,2013-06-07 00:49:00,
2013-06-06 19:54:00,68.7,54.1,29.86,NW,317,2.7,4.9,60,0.00,,OVC085,0.04,VWS V14.01,2013-06-07 00:54:00,
2013-06-06 19:59:00,68.5,53.9,29.86,NW,306,0.0,4.5,60,0.00,,OVC085,0.04,VWS V14.01,2013-06-07 00:59:00,
2013-06-06 20:04:00,68.4,53.7,29.86,NNE,12,0.0,4.0,60,0.00,,OVC075,0.04,VWS V14.01,2013-06-07 01:04:00,
2013-06-06 20:09:00,68.2,53.5,29.86,West,275,0.0,3.1,60,0.00,,OVC075,0.04,VWS V14.01,2013-06-07 01:09:00,
2013-06-06 20:15:00,68.2,53.5,29.86,NW,321,0.0,4.0,60,0.00,,OVC075,0.04,VWS V14.01,2013-06-07 01:15:00,
2013-06-06 20:20:00,68.0,53.4,29.86,WNW,302,0.0,6.3,60,0.00,,OVC075,0.04,VWS V14.01,2013-06-07 01:20:00,
2013-06-06 20:25:00,68.0,53.4,29.86,NW,304,0.0,0.0,60,0.00,,BKN085,0.04,VWS V14.01,2013-06-07 01:25:00,
2013-06-06 20:30:00,67.8,53.2,29.86,NNW,329,0.0,0.0,60,0.00,,BKN085,0.04,VWS V14.01,2013-06-07 01:30:00,
2013-06-06 20:35:00,67.6,53.0,29.86,WNW,297,2.7,5.8,60,0.00,,BKN085,0.04,VWS V14.01,2013-06-07 01:35:00,
2013-06-06 20:40:00,67.3,52.7,29.86,North,353,2.7,2.7,60,0.00,,BKN085,0.04,VWS V14.01,2013-06-07 01:40:00,
2013-06-06 20:45:00,67.1,52.5,29.86,North,353,0.0,2.2,60,0.00,,BKN085,0.04,VWS V14.01,2013-06-07 01:45:00,
2013-06-06 20:50:00,66.9,52.4,29.86,NW,322,2.7,4.9,60,0.00,,BKN085,0.04,VWS V14.01,2013-06-07 01:50:00,
2013-06-06 20:55:00,66.7,52.2,29.86,NNW,340,0.0,0.0,60,0.00,,BKN085,0.04,VWS V14.01,2013-06-07 01:55:00,
2013-06-06 21:00:00,66.6,52.0,29.86,NNW,346,0.0,0.0,60,0.00,,BKN085,0.04,VWS V14.01,2013-06-07 02:00:00,
2013-06-06 21:05:00,66.6,56.5,29.86,North,353,0.0,3.6,70,0.00,,SCT085,0.04,VWS V14.01,2013-06-07 02:05:00,
2013-06-06 21:10:00,66.4,56.3,29.86,North,353,0.0,4.0,70,0.00,,SCT085,0.04,VWS V14.01,2013-06-07 02:10:00,
2013-06-06 21:15:00,66.4,56.3,29.86,North,353,2.7,4.9,70,0.00,,SCT085,0.04,VWS V14.01,2013-06-07 02:15:00,
2013-06-06 21:20:00,66.2,56.1,29.86,NNW,346,0.0,2.2,70,0.00,,CLR,0.04,VWS V14.01,2013-06-07 02:20:00,
2013-06-06 21:25:00,66.2,56.1,29.86,NNW,346,4.0,4.0,70,0.00,,CLR,0.04,VWS V14.01,2013-06-07 02:25:00,
2013-06-06 21:31:00,66.2,56.1,29.86,North,0,0.0,2.2,70,0.00,,CLR,0.04,VWS V14.01,2013-06-07 02:31:00,
2013-06-06 21:36:00,66.4,56.3,29.86,North,353,3.6,4.0,70,0.00,,CLR,0.04,VWS V14.01,2013-06-07 02:36:00,
2013-06-06 21:41:00,66.4,56.3,29.86,North,353,6.3,6.3,70,0.00,,CLR,0.04,VWS V14.01,2013-06-07 02:41:00,
2013-06-06 21:46:00,66.4,56.3,29.86,NE,44,3.6,7.6,70,0.00,,CLR,0.04,VWS V14.01,2013-06-07 02:46:00,
2013-06-06 21:51:00,66.4,56.3,29.86,NE,54,2.7,3.1,70,0.00,,CLR,0.04,VWS V14.01,2013-06-07 02:51:00,
2013-06-06 21:56:00,66.2,56.1,29.86,NE,36,5.8,5.8,70,0.00,,CLR,0.04,VWS V14.01,2013-06-07 02:56:00,
2013-06-06 22:01:00,66.0,56.0,29.89,NE,56,6.3,6.3,70,0.00,,CLR,0.04,VWS V14.01,2013-06-07 03:01:00,
2013-06-06 22:06:00,65.8,55.8,29.89,North,1,0.0,0.0,70,0.00,,CLR,0.04,VWS V14.01,2013-06-07 03:06:00,
2013-06-06 22:11:00,65.7,52.7,29.89,North,353,2.7,4.9,63,0.00,,CLR,0.04,VWS V14.01,2013-06-07 03:11:00,
2013-06-06 22:17:00,65.1,52.2,29.89,NW,326,0.0,4.0,63,0.00,,CLR,0.04,VWS V14.01,2013-06-07 03:17:00,
2013-06-06 22:22:00,64.8,51.9,29.89,North,0,2.7,4.0,63,0.00,,CLR,0.04,VWS V14.01,2013-06-07 03:22:00,
2013-06-06 22:27:00,64.2,51.4,29.89,NNE,27,3.6,4.9,63,0.00,,CLR,0.04,VWS V14.01,2013-06-07 03:27:00,
2013-06-06 22:32:00,64.0,51.2,29.89,SSW,196,0.0,0.0,63,0.00,,CLR,0.04,VWS V14.01,2013-06-07 03:32:00,
2013-06-06 22:37:00,63.5,50.7,29.89,SE,124,2.7,8.1,63,0.00,,CLR,0.04,VWS V14.01,2013-06-07 03:37:00,
2013-06-06 22:42:00,63.3,50.5,29.89,NE,51,2.2,3.1,63,0.00,,SCT030,0.04,VWS V14.01,2013-06-07 03:42:00,
2013-06-06 22:47:00,63.1,50.3,29.89,East,79,2.7,4.9,63,0.00,,SCT030,0.04,VWS V14.01,2013-06-07 03:47:00,
2013-06-06 22:52:00,63.0,50.2,29.89,NE,36,3.1,5.4,63,0.00,,SCT030,0.04,VWS V14.01,2013-06-07 03:52:00,
2013-06-06 22:57:00,62.6,49.8,29.89,NNW,336,0.0,0.0,63,0.00,,SCT030,0.04,VWS V14.01,2013-06-07 03:57:00,
2013-06-06 23:01:00,62.6,49.8,29.89,NNW,329,3.1,3.1,63,0.00,,OVC032,0.04,VWS V14.01,2013-06-07 04:01:00,
2013-06-06 23:02:00,62.4,51.1,29.89,NW,324,2.7,4.0,66,0.00,,OVC032,0.04,VWS V14.01,2013-06-07 04:02:00,
2013-06-06 23:07:00,62.2,51.0,29.89,North,0,3.6,6.3,66,0.00,,OVC032,0.04,VWS V14.01,2013-06-07 04:07:00,
2013-06-06 23:12:00,62.1,50.8,29.89,North,0,3.1,5.8,66,0.00,,OVC032,0.04,VWS V14.01,2013-06-07 04:12:00,
2013-06-06 23:17:00,61.9,50.6,29.89,NE,44,2.7,5.8,66,0.00,,OVC032,0.04,VWS V14.01,2013-06-07 04:17:00,
2013-06-06 23:23:00,61.7,50.4,29.89,ESE,103,2.2,4.9,66,0.00,,BKN043,0.04,VWS V14.01,2013-06-07 04:23:00,
2013-06-06 23:28:00,61.7,50.4,29.89,NE,35,0.0,4.0,66,0.00,,BKN043,0.04,VWS V14.01,2013-06-07 04:28:00,
2013-06-06 23:33:00,61.5,50.3,29.89,ENE,74,2.7,5.4,66,0.00,,BKN043,0.04,VWS V14.01,2013-06-07 04:33:00,
2013-06-06 23:38:00,61.3,50.1,29.89,NE,40,3.1,7.2,66,0.00,,SCT026,0.04,VWS V14.01,2013-06-07 04:38:00,
2013-06-06 23:43:00,61.3,50.1,29.89,ENE,57,4.9,6.3,66,0.00,,SCT026,0.04,VWS V14.01,2013-06-07 04:43:00,
2013-06-06 23:48:00,61.2,49.9,29.89,NE,36,5.8,5.8,66,0.00,,SCT026,0.04,VWS V14.01,2013-06-07 04:48:00,
2013-06-06 23:53:00,61.2,49.9,29.89,NNE,30,3.6,7.6,66,0.00,,SCT026,0.04,VWS V14.01,2013-06-07 04:53:00,
2013-06-06 23:59:00,61.0,49.8,29.89,NNW,327,2.7,6.3,66,0.00,,SCT026,0.04,VWS V14.01,2013-06-07 04:59:00,